When you browse on this site, cookies collect data to enhance your experience and personalize the content and advertising you see.
Visit our Privacy Policy to learn more. By continuing to use the site, you agree to this use of cookies and data.
  • En España
  • Lista de países
  • Para 7 días
  • Temperatura del agua
  • El tiempo en el mapa
  • Informadores
  • user-avatar
    Iniciar sesión

    Tiempo cada hora Ternopil

    Hoy, 4 Abril, Sábado

    Tiempo Temperatura Precipitaciones Viento Presión Humedad
    00:00 +4°C° 0 mm 3 mps 734 mmHg 81%
    01:00 +3°C° 0 mm 3 mps 735 mmHg 82%
    02:00 +4°C° 0 mm 2 mps 735 mmHg 78%
    03:00 +3°C° 0 mm 2 mps 736 mmHg 79%
    04:00 +3°C° 0 mm 2 mps 736 mmHg 80%
    05:00 +2°C° 0 mm 2 mps 736 mmHg 81%
    06:00 +3°C° 0 mm 2 mps 737 mmHg 75%
    07:00 +4°C° 0 mm 2 mps 738 mmHg 70%
    08:00 +6°C° 0 mm 1 mps 739 mmHg 63%
    09:00 +6°C° 0 mm 2 mps 739 mmHg 56%
    10:00 +7°C° 0 mm 2 mps 739 mmHg 48%
    11:00 +8°C° 0 mm 2 mps 739 mmHg 41%
    12:00 +9°C° 0 mm 2 mps 740 mmHg 39%
    13:00 +9°C° 0 mm 2 mps 740 mmHg 37%
    14:00 +10°C° 0 mm 2 mps 740 mmHg 35%
    15:00 +10°C° 0 mm 2 mps 740 mmHg 37%
    16:00 +10°C° 0 mm 2 mps 740 mmHg 38%
    17:00 +10°C° 0 mm 3 mps 740 mmHg 40%
    18:00 +8°C° 0 mm 2 mps 741 mmHg 47%
    19:00 +7°C° 0 mm 2 mps 741 mmHg 54%
    20:00 +6°C° 0 mm 2 mps 741 mmHg 61%
    21:00 +5°C° 0 mm 2 mps 742 mmHg 63%
    22:00 +5°C° 0 mm 2 mps 743 mmHg 65%
    23:00 +4°C° 0 mm 2 mps 743 mmHg 67%

    Mañana, 5 Abril, Domingo

    Tiempo Temperatura Precipitaciones Viento Presión Humedad
    00:00 +4°C° 0 mm 2 mps 744 mmHg 67%
    01:00 +4°C° 0 mm 2 mps 744 mmHg 68%
    02:00 +3°C° 0 mm 2 mps 744 mmHg 69%
    03:00 +3°C° 0 mm 2 mps 744 mmHg 69%
    04:00 +3°C° 0 mm 1 mps 745 mmHg 69%
    05:00 +3°C° 0 mm 1 mps 745 mmHg 69%
    06:00 +4°C° 0 mm 1 mps 745 mmHg 65%
    07:00 +5°C° 0 mm 1 mps 746 mmHg 61%
    08:00 +6°C° 0 mm 1 mps 746 mmHg 57%
    09:00 +6°C° 0 mm 2 mps 746 mmHg 50%
    10:00 +8°C° 0 mm 2 mps 747 mmHg 43%
    11:00 +9°C° 0 mm 3 mps 747 mmHg 36%
    12:00 +9°C° 0 mm 3 mps 747 mmHg 35%
    13:00 +10°C° 0 mm 3 mps 747 mmHg 34%
    14:00 +11°C° 0 mm 3 mps 747 mmHg 33%
    15:00 +11°C° 0 mm 3 mps 747 mmHg 34%
    16:00 +11°C° 0 mm 3 mps 746 mmHg 35%
    17:00 +10°C° 0 mm 3 mps 746 mmHg 36%
    18:00 +9°C° 0 mm 3 mps 746 mmHg 41%
    19:00 +8°C° 0 mm 3 mps 747 mmHg 46%
    20:00 +7°C° 0 mm 2 mps 747 mmHg 51%
    21:00 +6°C° 0 mm 2 mps 747 mmHg 53%
    22:00 +4°C° 0 mm 3 mps 747 mmHg 55%
    23:00 +4°C° 0 mm 3 mps 748 mmHg 57%

    Pasado mañana, 6 Abril, Lunes

    Tiempo Temperatura Precipitaciones Viento Presión Humedad
    00:00 +3°C° 0 mm 3 mps 748 mmHg 58%
    01:00 +3°C° 0 mm 3 mps 748 mmHg 59%
    02:00 +2°C° 0 mm 3 mps 748 mmHg 60%
    03:00 +2°C° 0 mm 3 mps 748 mmHg 60%
    04:00 +1°C° 0 mm 3 mps 748 mmHg 59%
    05:00 +1°C° 0 mm 3 mps 748 mmHg 59%
    06:00 +1°C° 0 mm 4 mps 748 mmHg 56%
    07:00 +3°C° 0 mm 4 mps 748 mmHg 53%
    08:00 +3°C° 0 mm 5 mps 749 mmHg 49%
    09:00 +6°C° 0 mm 5 mps 749 mmHg 46%
    10:00 +7°C° 0 mm 5 mps 749 mmHg 42%
    11:00 +8°C° 0 mm 5 mps 749 mmHg 39%
    12:00 +9°C° 0 mm 5 mps 749 mmHg 37%
    13:00 +10°C° 0 mm 5 mps 748 mmHg 36%
    14:00 +12°C° 0 mm 5 mps 748 mmHg 34%
    15:00 +12°C° 0 mm 4 mps 748 mmHg 35%
    16:00 +12°C° 0 mm 4 mps 748 mmHg 36%
    17:00 +12°C° 0 mm 4 mps 747 mmHg 36%
    18:00 +11°C° 0 mm 3 mps 747 mmHg 40%
    19:00 +9°C° 0 mm 3 mps 747 mmHg 44%
    20:00 +8°C° 0 mm 3 mps 747 mmHg 48%
    21:00 +7°C° 0 mm 3 mps 747 mmHg 49%
    22:00 +5°C° 0 mm 3 mps 748 mmHg 50%
    23:00 +5°C° 0 mm 3 mps 748 mmHg 51%

    7 Abril, Martes

    Tiempo Temperatura Precipitaciones Viento Presión Humedad
    00:00 +4°C° 0 mm 3 mps 748 mmHg 51%
    01:00 +5°C° 0 mm 2 mps 748 mmHg 52%
    02:00 +4°C° 0 mm 2 mps 747 mmHg 53%
    03:00 +4°C° 0 mm 2 mps 748 mmHg 54%
    04:00 +4°C° 0 mm 2 mps 748 mmHg 54%
    05:00 +3°C° 0 mm 2 mps 748 mmHg 54%
    06:00 +5°C° 0 mm 2 mps 748 mmHg 52%
    07:00 +5°C° 0 mm 3 mps 748 mmHg 50%
    08:00 +7°C° 0 mm 3 mps 748 mmHg 47%
    09:00 +8°C° 0 mm 4 mps 748 mmHg 43%
    10:00 +11°C° 0 mm 4 mps 748 mmHg 39%
    11:00 +12°C° 0 mm 4 mps 748 mmHg 35%
    12:00 +13°C° 0 mm 4 mps 748 mmHg 32%
    13:00 +14°C° 0 mm 4 mps 748 mmHg 29%
    14:00 +16°C° 0 mm 3 mps 748 mmHg 27%
    15:00 +16°C° 0 mm 3 mps 747 mmHg 27%
    16:00 +16°C° 0 mm 3 mps 747 mmHg 28%
    17:00 +14°C° 0 mm 3 mps 747 mmHg 29%
    18:00 +14°C° 0 mm 2 mps 747 mmHg 33%
    19:00 +12°C° 0 mm 2 mps 747 mmHg 37%
    20:00 +10°C° 0 mm 2 mps 747 mmHg 41%
    21:00 +9°C° 0 mm 2 mps 747 mmHg 43%
    22:00 +8°C° 0 mm 2 mps 747 mmHg 44%
    23:00 +8°C° 0 mm 2 mps 747 mmHg 46%

    8 Abril, Miércoles

    Tiempo Temperatura Precipitaciones Viento Presión Humedad
    00:00 +7°C° 0 mm 2 mps 747 mmHg 47%
    01:00 +7°C° 0 mm 2 mps 746 mmHg 48%
    02:00 +7°C° 0 mm 1 mps 746 mmHg 50%
    03:00 +7°C° 0 mm 1 mps 746 mmHg 50%
    04:00 +7°C° 0 mm 1 mps 746 mmHg 51%
    05:00 +6°C° 0 mm 1 mps 746 mmHg 51%
    06:00 +8°C° 0 mm 1 mps 746 mmHg 49%
    07:00 +9°C° 0 mm 1 mps 746 mmHg 47%
    08:00 +10°C° 0 mm 1 mps 746 mmHg 46%
    09:00 +12°C° 0 mm 1 mps 745 mmHg 41%
    10:00 +13°C° 0 mm 1 mps 745 mmHg 37%
    11:00 +15°C° 0 mm 1 mps 745 mmHg 33%
    12:00 +16°C° 0 mm 1 mps 745 mmHg 31%
    13:00 +18°C° 0 mm 1 mps 744 mmHg 29%
    14:00 +19°C° 0 mm 1 mps 744 mmHg 27%
    15:00 +19°C° 0 mm 1 mps 743 mmHg 28%
    16:00 +19°C° 0 mm 1 mps 743 mmHg 29%
    17:00 +18°C° 0 mm 2 mps 743 mmHg 30%
    18:00 +16°C° 0 mm 2 mps 743 mmHg 35%
    19:00 +14°C° 0 mm 1 mps 742 mmHg 40%
    20:00 +13°C° 0 mm 1 mps 742 mmHg 46%
    21:00 +12°C° 0 mm 1 mps 742 mmHg 48%
    22:00 +12°C° 0 mm 1 mps 742 mmHg 50%
    23:00 +11°C° 0 mm 1 mps 742 mmHg 52%

    9 Abril, Jueves

    Tiempo Temperatura Precipitaciones Viento Presión Humedad
    00:00 +11°C° 0 mm 1 mps 742 mmHg 53%
    01:00 +10°C° 0 mm 1 mps 742 mmHg 54%
    02:00 +10°C° 0 mm 1 mps 741 mmHg 55%
    03:00 +8°C° 0 mm 2 mps 741 mmHg 57%
    04:00 +8°C° 0 mm 2 mps 741 mmHg 58%
    05:00 +7°C° 0 mm 2 mps 741 mmHg 59%
    06:00 +9°C° 0 mm 2 mps 741 mmHg 58%
    07:00 +10°C° 0 mm 2 mps 741 mmHg 56%
    08:00 +11°C° 0 mm 3 mps 741 mmHg 54%
    09:00 +12°C° 0 mm 3 mps 741 mmHg 50%
    10:00 +14°C° 0 mm 3 mps 741 mmHg 45%
    11:00 +17°C° 0 mm 4 mps 740 mmHg 41%
    12:00 +17°C° 0 mm 4 mps 740 mmHg 40%
    13:00 +18°C° 0 mm 4 mps 740 mmHg 39%
    14:00 +18°C° 0 mm 4 mps 740 mmHg 39%
    15:00 +17°C° 0 mm 5 mps 739 mmHg 40%
    16:00 +17°C° 0 mm 5 mps 739 mmHg 40%
    17:00 +17°C° 0 mm 5 mps 738 mmHg 41%
    18:00 +15°C° 0 mm 4 mps 739 mmHg 46%
    19:00 +14°C° 0 mm 4 mps 739 mmHg 52%
    20:00 +12°C° 0 mm 3 mps 739 mmHg 57%
    21:00 +12°C° 0 mm 3 mps 739 mmHg 61%
    22:00 +11°C° 0 mm 3 mps 739 mmHg 65%
    23:00 +10°C° 0 mm 4 mps 739 mmHg 69%
    Mostrar más